Location: Prague
(50.0830°N, 14.4670°E)
Time: 16:06:58
(UTC+01:00)

ITUPSAT 1 - Pass Details

Date: 07 December 2021
Orbit: 700 x 713 km, 98.6° (Epoch: 26 January)

Event Time Altitude Azimuth Distance (km) Brightness Sun altitude
Rises 05:38:52 0° 130° (SE) 3,096 ? -19.5°
Reaches altitude 10° 05:41:23 10° 118° (ESE) 2,184 ? -19.1°
Maximum altitude 05:45:22 27° 62° (ENE) 1,348 ? -18.4°
Drops below altitude 10° 05:49:24 10° 5° (N) 2,202 ? -17.8°
Sets 05:51:57 0° 354° (N) 3,127 ? -17.4°
